This is the latest recevied weather packets stored in our database for station/object OM4MO-10. If no packets are shown the sender has not sent any weather packets the latest 10 day(s).
| Time | Temp. | Humidity | Pressure | Rain* | Wind** | Luminosity | Snow |
|---|---|---|---|---|---|---|---|
| 1788466397 | 13.89° C | 79% | 1021.3 hPa | - | - | - | - |
| 1788465497 | 13.89° C | 79% | 1021.3 hPa | - | - | - | - |
| 1788464597 | 14.44° C | 79% | 1021.1 hPa | - | - | - | - |
| 1788463697 | 14.44° C | 79% | 1021 hPa | - | - | - | - |
| 1788462797 | 15° C | 79% | 1021.1 hPa | - | - | - | - |
| 1788461897 | 15° C | 79% | 1021.1 hPa | - | - | - | - |
| 1788460997 | 15° C | 79% | 1021.1 hPa | - | - | - | - |
| 1788460097 | 15.56° C | 79% | 1021.1 hPa | - | - | - | - |
| 1788459196 | 16.11° C | 79% | 1020.9 hPa | - | - | - | - |
| 1788458296 | 16.11° C | 79% | 1020.8 hPa | - | - | - | - |
| 1788457396 | 21.67° C | 79% | 754.7 hPa | - | - | - | - |
| 1788456496 | 17.22° C | 79% | 1019.2 hPa | - | - | - | - |
| 1788455595 | 17.78° C | 79% | 1018.6 hPa | - | - | - | - |
| 1788454695 | 17.78° C | 79% | 1018.2 hPa | - | - | - | - |
| 1788453794 | 19.44° C | 79% | 1019.3 hPa | - | - | - | - |
| 1788452894 | 21.67° C | 79% | 754.7 hPa | - | - | - | - |
| 1788451993 | 21.67° C | 79% | 754.7 hPa | - | - | - | - |
| 1788451092 | 21.67° C | 79% | 754.7 hPa | - | - | - | - |
| 1788450192 | 21.67° C | 79% | 754.7 hPa | - | - | - | - |
| 1788449292 | 20° C | 79% | 1016 hPa | - | - | - | - |
| 1788448392 | 21.67° C | 79% | 754.7 hPa | - | - | - | - |
| 1788447492 | 21.67° C | 79% | 754.7 hPa | - | - | - | - |
| 1788446592 | 21.67° C | 79% | 1019.2 hPa | - | - | - | - |
| 1788445690 | 21.67° C | 79% | 754.7 hPa | - | - | - | - |
| 1788444789 | 21.67° C | 79% | 754.7 hPa | - | - | - | - |
* Rain since midnight (hover to see other rain measurements)
** Current wind speed in m/s (hover to see current wind gust speed)